EA1IDU Weather Reports


Display with metric or nautical units.
time (UTC)temp
F
wind
direction
speed
MPH
gust
MPH
rain 1hr
in
rain 24hr
in
rain mn
in
humidity
%
barometer
mb
20260508013105 49 99 7.0 11.0 0.00 0.15 0.00 75 1011.9
20260508012101 50 132 8.0 13.0 0.00 0.15 0.00 75 1011.9
20260508011055 50 145 8.0 17.0 0.00 0.15 0.00 76 1012.2
20260508010051 50 123 7.0 13.0 0.00 0.15 0.00 76 1012.4
20260508005045 50 151 9.0 17.0 0.00 0.15 0.00 76 1012.5
20260508004040 50 113 7.0 14.0 0.00 0.15 0.00 77 1012.4
20260508003056 50 132 7.0 15.0 0.00 0.15 0.00 77 1012.5
20260508002030 50 138 8.0 15.0 0.00 0.15 0.00 77 1012.5
20260508001026 50 121 5.0 11.0 0.00 0.15 0.00 77 1012.7
20260508000021 50 100 5.0 9.0 0.00 0.15 0.00 77 1012.7
20260507235036 50 133 8.0 16.0 0.00 0.15 0.00 77 1012.7
20260507234111 50 117 7.0 14.0 0.00 0.15 0.00 77 1012.6
20260507233106 50 136 4.0 11.0 0.00 0.15 0.00 78 1012.7
20260507232141 50 144 4.0 9.0 0.00 0.15 0.00 78 1012.6
20260507231056 50 172 4.0 8.0 0.00 0.15 0.00 78 1012.8
20260507230051 50 188 1.0 4.0 0.00 0.15 0.00 78 1012.9
20260507225046 50 164 2.0 6.0 0.00 0.15 0.00 79 1013.0
20260507224042 49 180 0.0 4.0 0.00 0.15 0.00 80 1013.1
20260507223037 49 203 0.0 2.0 0.00 0.15 0.00 80 1013.1
20260507222032 50 138 1.0 2.0 0.00 0.15 0.00 79 1013.1
20260507221027 50 74 2.0 6.0 0.00 0.15 0.00 79 1013.0
20260507220022 50 52 2.0 4.0 0.00 0.15 0.00 79 1013.1
20260507215016 49 45 3.0 7.0 0.00 0.15 0.15 81 1013.1
20260507214112 49 315 0.0 2.0 0.00 0.15 0.15 81 1013.1
20260507213107 49 248 0.0 2.0 0.00 0.15 0.15 81 1013.1
20260507212102 49 0.0 2.0 0.00 0.15 0.15 80 1013.2
20260507211117 49 0.0 0.0 0.00 0.15 0.15 79 1013.2
20260507210052 49 64 1.0 2.0 0.00 0.15 0.15 80 1013.0
20260507205047 49 113 0.0 2.0 0.00 0.15 0.15 81 1013.0
20260507204042 50 135 0.0 2.0 0.00 0.15 0.15 81 1012.8
20260507203057 50 106 1.0 4.0 0.00 0.15 0.15 82 1012.6
20260507202032 50 75 3.0 4.0 0.00 0.15 0.15 82 1012.4
20260507201047 50 68 4.0 8.0 0.00 0.15 0.15 81 1012.2
20260507200022 51 45 3.0 6.0 0.00 0.15 0.15 81 1012.2
20260507195017 51 43 3.0 4.0 0.00 0.15 0.15 80 1012.0
20260507194113 51 45 5.0 8.0 0.00 0.15 0.15 79 1011.8
20260507193107 51 45 5.0 8.0 0.00 0.15 0.15 79 1011.7
20260507192102 51 36 3.0 7.0 0.00 0.15 0.15 79 1011.8
20260507191057 51 42 3.0 8.0 0.00 0.15 0.15 78 1011.8
20260507190053 52 45 6.0 8.0 0.00 0.15 0.15 77 1011.6
20260507185049 52 41 6.0 9.0 0.00 0.15 0.15 78 1011.7
20260507184104 52 45 7.0 11.0 0.00 0.15 0.15 75 1011.6
20260507183058 53 45 8.0 11.0 0.00 0.15 0.15 74 1011.6
20260507182033 53 11 6.0 9.0 0.00 0.15 0.15 75 1011.4
20260507181028 54 45 6.0 11.0 0.00 0.15 0.15 73 1011.4
20260507180023 54 38 4.0 6.0 0.00 0.15 0.15 72 1011.3
20260507175038 54 36 4.0 8.0 0.00 0.15 0.15 72 1011.4
20260507174113 54 45 5.0 9.0 0.00 0.15 0.15 74 1011.5
20260507173129 53 42 8.0 11.0 0.00 0.15 0.15 73 1011.6
20260507172103 53 38 7.0 11.0 0.00 0.15 0.15 75 1011.8
20260507171058 52 55 8.0 15.0 0.00 0.15 0.15 78 1011.7
20260507170053 51 50 8.0 14.0 0.00 0.15 0.15 79 1011.9
20260507165049 51 42 10.0 14.0 0.00 0.15 0.15 78 1011.8
20260507164043 51 45 10.0 13.0 0.00 0.15 0.15 78 1012.0
20260507163038 51 45 10.0 13.0 0.00 0.15 0.15 80 1012.0
20260507162033 51 49 7.0 11.0 0.00 0.15 0.15 84 1012.1
20260507161029 50 45 6.0 8.0 0.00 0.15 0.15 84 1012.4
20260507160023 50 4 4.0 8.0 0.02 0.15 0.15 86 1012.5
20260507155040 49 38 2.0 6.0 0.05 0.15 0.15 88 1012.5
20260507154114 48 8 3.0 8.0 0.13 0.15 0.15 88 1012.5
20260507153109 48 357 5.0 9.0 0.15 0.15 0.15 88 1012.4
20260507152104 48 41 3.0 6.0 0.15 0.15 0.15 88 1012.6
20260507151059 49 32 5.0 9.0 0.15 0.15 0.15 83 1012.3
20260507150054 50 329 4.0 7.0 0.13 0.13 0.13 79 1012.7
20260507145050 51 50 7.0 11.0 0.11 0.11 0.11 72 1012.7
20260507144044 52 184 10.0 16.0 0.02 0.02 0.02 69 1012.6
20260507143039 51 295 8.0 16.0 0.00 0.00 0.00 70 1011.1
20260507142034 53 6 10.0 17.0 0.00 0.00 0.00 63 1010.8
20260507141029 54 6 11.0 20.0 0.00 0.00 0.00 60 1011.0
20260507140024 56 321 15.0 36.0 0.00 0.00 0.00 60 1010.8
20260507135019 59 358 2.0 4.0 0.00 0.00 0.00 59 1010.8
20260507134116 59 117 8.0 14.0 0.00 0.00 0.00 59 1010.5
20260507133111 61 95 8.0 16.0 0.00 0.00 0.00 58 1010.6
20260507132105 60 91 8.0 14.0 0.00 0.00 0.00 59 1010.6
20260507131100 60 98 11.0 18.0 0.00 0.00 0.00 61 1010.7
20260507130055 61 42 9.0 14.0 0.00 0.00 0.00 64 1010.8
20260507125050 60 66 5.0 13.0 0.00 0.00 0.00 65 1010.8
20260507124045 59 46 11.0 17.0 0.00 0.00 0.00 67 1010.9
20260507123039 60 55 8.0 13.0 0.00 0.00 0.00 63 1011.0
20260507122036 60 61 4.0 8.0 0.00 0.00 0.00 61 1011.2
20260507121031 62 112 3.0 4.0 0.00 0.00 0.00 50 1011.4
20260507120026 63 159 4.0 8.0 0.00 0.00 0.00 45 1011.5
20260507115101 63 213 4.0 11.0 0.00 0.00 0.00 46 1011.6
20260507114115 62 188 3.0 8.0 0.00 0.00 0.00 46 1011.6
20260507113110 61 188 5.0 11.0 0.00 0.00 0.00 47 1011.6
20260507112105 61 216 4.0 8.0 0.00 0.00 0.00 49 1011.8
20260507111100 61 162 3.0 7.0 0.00 0.00 0.00 49 1011.8
20260507110136 61 165 2.0 4.0 0.00 0.00 0.00 51 1012.1
20260507105052 61 159 4.0 8.0 0.00 0.00 0.00 51 1012.0
20260507104047 60 208 3.0 8.0 0.00 0.00 0.00 51 1012.1
20260507103042 60 166 5.0 9.0 0.00 0.00 0.00 52 1012.2
20260507102035 60 248 3.0 6.0 0.00 0.00 0.00 52 1012.3
20260507101031 60 172 3.0 8.0 0.00 0.00 0.00 54 1012.3
20260507100026 58 167 5.0 11.0 0.00 0.00 0.00 56 1012.4
20260507095021 57 165 6.0 11.0 0.00 0.00 0.00 58 1012.4
20260507094016 57 71 2.0 8.0 0.00 0.00 0.00 69 1012.5
20260507093132 56 0 3.0 8.0 0.00 0.00 0.00 71 1012.4
20260507092106 55 44 4.0 9.0 0.00 0.00 0.00 73 1012.5
20260507091101 55 100 2.0 4.0 0.00 0.00 0.00 72 1012.7
20260507090057 54 93 3.0 6.0 0.00 0.00 0.00 74 1012.8
20260507085112 53 21 3.0 6.0 0.00 0.00 0.00 76 1012.7
20260507084046 53 47 3.0 6.0 0.00 0.00 0.00 76 1012.6
20260507083041 52 39 2.0 4.0 0.00 0.00 0.00 77 1012.7
20260507082036 51 18 3.0 6.0 0.00 0.00 0.00 79 1012.6
20260507081031 50 12 3.0 8.0 0.00 0.00 0.00 81 1012.6
20260507080028 50 357 4.0 9.0 0.00 0.00 0.00 82 1012.6
20260507075022 48 354 4.0 9.0 0.00 0.00 0.00 84 1012.6
20260507074018 48 0 4.0 8.0 0.00 0.00 0.00 85 1012.6
20260507073112 47 348 4.0 8.0 0.00 0.00 0.00 87 1012.6
20260507072107 46 26 5.0 11.0 0.00 0.00 0.00 88 1012.6
20260507071102 46 52 4.0 8.0 0.00 0.00 0.00 89 1012.5
20260507070057 45 6 5.0 9.0 0.00 0.00 0.00 91 1012.5
20260507065112 44 20 5.0 9.0 0.00 0.00 0.00 92 1012.5
20260507064107 44 32 4.0 8.0 0.00 0.00 0.00 93 1012.5
20260507063042 44 33 6.0 11.0 0.00 0.00 0.00 94 1012.6
20260507062037 44 42 4.0 6.0 0.00 0.00 0.00 94 1012.6
20260507061053 43 33 5.0 11.0 0.00 0.00 0.00 94 1012.6
20260507060027 43 37 7.0 11.0 0.00 0.00 0.00 94 1012.6
20260507055023 43 37 6.0 11.0 0.00 0.00 0.00 94 1012.3
20260507054017 43 42 6.0 11.0 0.00 0.00 0.00 94 1012.4
20260507053112 43 39 5.0 8.0 0.00 0.00 0.00 94 1012.4
20260507052108 43 38 6.0 9.0 0.00 0.00 0.00 94 1012.4
20260507051103 44 45 7.0 11.0 0.00 0.00 0.00 94 1012.5
20260507050058 44 36 7.0 11.0 0.00 0.00 0.00 94 1012.6
20260507045053 44 38 7.0 11.0 0.00 0.00 0.00 94 1012.5
20260507044048 44 35 7.0 13.0 0.00 0.00 0.00 94 1012.5
20260507043043 44 36 8.0 13.0 0.00 0.00 0.00 94 1012.7
20260507042038 44 26 7.0 14.0 0.00 0.00 0.00 94 1012.5
20260507041033 44 41 6.0 11.0 0.00 0.00 0.00 94 1012.6
20260507040028 44 8 5.0 11.0 0.00 0.00 0.00 94 1012.6
20260507035024 44 12 5.0 11.0 0.00 0.00 0.00 94 1012.6
20260507034018 44 24 3.0 7.0 0.00 0.00 0.00 94 1012.7
20260507033113 44 354 4.0 7.0 0.00 0.00 0.00 94 1012.7
20260507032108 44 344 3.0 6.0 0.00 0.00 0.00 94 1012.9
20260507031124 44 43 3.0 4.0 0.00 0.00 0.00 94 1012.8
20260507030058 44 33 4.0 7.0 0.00 0.00 0.00 94 1012.7
20260507025053 44 45 5.0 9.0 0.00 0.00 0.00 94 1012.8
20260507024048 44 34 4.0 8.0 0.00 0.00 0.00 94 1012.8
20260507023103 44 43 5.0 9.0 0.00 0.00 0.00 94 1013.0
20260507022119 44 18 4.0 11.0 0.00 0.00 0.00 93 1012.9
20260507021033 44 23 7.0 11.0 0.00 0.00 0.00 93 1012.9
20260507020028 43 26 6.0 11.0 0.00 0.00 0.00 93 1012.9
20260507015024 43 42 3.0 8.0 0.00 0.00 0.00 93 1013.1
20260507014038 43 19 3.0 6.0 0.00 0.00 0.00 93 1013.1